User: anonymous   Login
Location: Unspecified
(0.0000°N, 0.0000°E)
Time: 13:32:08
(UTC+00:00)
Language:

AO-91 - Orbit

View from above orbital plane
View from above orbital plane
View from above satellite
View from above satellite

Ground track
Ground track

The orbit data is extracted from the following two-line orbital elements,

1 43017U 17073E   18199.75970356 +.00000298 +00000-0 +28836-4 0  9993
2 43017 097.7073 129.5787 0259885 168.5393 192.1895 14.78108280035777
Epoch (UTC): 18 July 2018 18:13:58
Eccentricity: 0.0259885
inclination: 97.7073°
perigee height: 453 km
apogee height: 817 km
right ascension of ascending node: 129.5787°
argument of perigee: 168.5393°
revolutions per day: 14.78108280
mean anomaly at epoch: 192.1895°
orbit number at epoch: 3577

The dashed part of the orbit path shows where the satellite is in the earth's shadow,  

DLR